Flag for Brazil Weather past 2 weeks in Curitiba, Paraná, Brazil

Now
55 °F

Low clouds.


Feels Like: 55 °F
Forecast: 50 / 75 °F
Wind: 3 mph from East

Location: Curitiba Aeroporto

Current Time: Aug 29, 2015 at 12:07:32 AM

Latest Report: Aug 28, 2015 at 11:00 PM


Visibility: N/A

Pressure: 30.27 "Hg (27.14 "Hg at 915m altitude)

Humidity: 94%

Dew point: 54 °F

Location of CuritibaLocation

Historic Weather in Curitiba — Graph

°F

Curitiba temperature yesterday

Maximum temperature yesterday: 72 °F (at 2:00 PM)
Minimum temperature yesterday: 45 °F (at 6:00 AM)
Average temperature yesterday: 58 °F

Past Weeks' High & Low Weather Summary

 TemperatureHumidityPressure
High79 °F (Aug 16, 1:00 PM)100% (Aug 13, 11:00 PM)30.33 "Hg (Aug 13, 11:00 PM)
Low45 °F (Aug 28, 6:00 AM)23% (Aug 28, 2:00 PM)29.98 "Hg (Aug 19, 4:00 AM)
Average60 °F79%30.16 "Hg
* Reported Aug 13 11:00 PM — Aug 28 11:00 PM, Curitiba, Weather by CustomWeather, © 2015

Note: Actual official high and low records may vary slightly from our data, if they occured in-between our weather recording intervals... More about our weather records

Advertising

Curitiba weather history for previous 24 hours

 ConditionsComfort  
Time TempWeatherWind HumidityBarometerVisibility
11:00 PM
Fri, Aug 28
55 °FLow clouds.3 mph94%30.27 "HgN/A
10:00 PM55 °FLow clouds.6 mph88%30.27 "HgN/A
9:00 PM54 °FPassing clouds.3 mph94%30.27 "HgN/A
8:00 PM54 °FClear.6 mph94%30.27 "Hg10 mi
7:00 PM55 °FPassing clouds.8 mph82%30.24 "HgN/A
6:00 PM59 °FClear.8 mph72%30.24 "Hg10 mi
5:00 PM66 °FSunny.10 mph49%30.24 "Hg10 mi
4:00 PM68 °FSunny.9 mph60%30.21 "Hg10 mi
3:00 PM72 °FSunny.2 mph25%30.21 "Hg10 mi
2:00 PM72 °FPassing clouds.3 mph23%30.24 "HgN/A
1:00 PM70 °FScattered clouds.6 mph29%30.27 "HgN/A
12:00 PM68 °FPassing clouds.6 mph40%30.30 "HgN/A
11:00 AM66 °FPassing clouds.5 mph46%30.30 "HgN/A
10:00 AM63 °FPassing clouds.3 mph52%30.30 "HgN/A
9:00 AM59 °FPassing clouds.5 mph48%30.30 "HgN/A
8:00 AM52 °FPassing clouds.2 mph88%30.27 "HgN/A
7:00 AM46 °FSunny.No wind93%30.24 "Hg10 mi
6:00 AM45 °FSunny.3 mph93%30.21 "Hg10 mi
5:00 AM48 °FClear.2 mph94%30.18 "Hg10 mi
4:00 AM48 °FClear.2 mph94%30.18 "Hg10 mi
3:00 AM52 °FClear.5 mph82%30.18 "Hg10 mi
2:00 AM54 °FClear.No wind82%30.21 "Hg10 mi
1:00 AM55 °FClear.No wind77%30.21 "Hg10 mi
12:00 AM54 °FClear.No wind88%30.21 "Hg10 mi
Weather by CustomWeather, © 2015

See weather overviewHow to use our weather pages